Location: Highridge
(54.0333°N, 114.1333°W)
Time: 06:21:58
(UTC+00:00)

SO-50 - Pass Details

Date: 11 December 2023
Orbit: 608 x 660 km, 64.6° (Epoch: 02 March)

Event Time Altitude Azimuth Distance (km) Brightness Sun altitude
Exits shadow 13:38:11 20° 335° (NNW) 1,508 ? -17.2°
Maximum altitude 13:39:31 22° 360° (N) 1,401 ? -17.0°
Drops below altitude 10° 13:43:06 10° 51° (NE) 2,020 ? -16.5°
Sets 13:45:49 0° 67° (ENE) 2,917 ? -16.2°
